• In Italy
  • List of Countries
  • For 7 days
  • Water Temperature
  • Satellite Maps
  • Weather Map
  • Weather Widgets
  • user-avatar
    Login

    Hourly Weather Nazaret

    Today, 20 November, Monday

    Time Temperature Precipitation Wind Pressure Humidity
    00:00 +18°C° 0 mm 1 mps 729 mmHg 78%
    01:00 +18°C° 0 mm 1 mps 729 mmHg 78%
    02:00 +16°C° 0 mm 1 mps 729 mmHg 77%
    03:00 +16°C° 0 mm 1 mps 729 mmHg 77%
    04:00 +16°C° 0 mm 1 mps 729 mmHg 77%
    05:00 +16°C° 0 mm 1 mps 729 mmHg 77%
    06:00 +18°C° 0 mm 1 mps 729 mmHg 74%
    07:00 +18°C° 0 mm 1 mps 729 mmHg 71%
    08:00 +19°C° 0 mm 1 mps 729 mmHg 68%
    09:00 +19°C° 0 mm 2 mps 729 mmHg 62%
    10:00 +20°C° 0 mm 2 mps 729 mmHg 56%
    11:00 +21°C° 0 mm 3 mps 729 mmHg 51%
    12:00 +21°C° 0 mm 3 mps 729 mmHg 50%
    13:00 +21°C° 0 mm 4 mps 728 mmHg 48%
    14:00 +21°C° 0 mm 5 mps 728 mmHg 47%
    15:00 +20°C° 0.2 mm 4 mps 728 mmHg 53%
    16:00 +19°C° 0.2 mm 4 mps 728 mmHg 58%
    17:00 +18°C° 0.2 mm 4 mps 728 mmHg 64%
    18:00 +18°C° 0.4 mm 3 mps 728 mmHg 67%
    19:00 +18°C° 0.4 mm 3 mps 728 mmHg 70%
    20:00 +17°C° 0.4 mm 3 mps 728 mmHg 73%
    21:00 +17°C° 0.5 mm 3 mps 728 mmHg 74%
    22:00 +17°C° 0.5 mm 3 mps 727 mmHg 75%
    23:00 +16°C° 0.5 mm 3 mps 727 mmHg 75%

    Tomorrow, 21 November, Tuesday

    Time Temperature Precipitation Wind Pressure Humidity
    00:00 +15°C° 0.4 mm 4 mps 727 mmHg 75%
    01:00 +15°C° 0.4 mm 4 mps 727 mmHg 75%
    02:00 +15°C° 0.4 mm 4 mps 727 mmHg 75%
    03:00 +15°C° 0.7 mm 5 mps 727 mmHg 75%
    04:00 +15°C° 0.7 mm 5 mps 726 mmHg 76%
    05:00 +15°C° 0.7 mm 6 mps 726 mmHg 77%
    06:00 +15°C° 0.8 mm 6 mps 726 mmHg 74%
    07:00 +16°C° 0.8 mm 7 mps 727 mmHg 72%
    08:00 +16°C° 0.8 mm 7 mps 727 mmHg 70%
    09:00 +17°C° 0.6 mm 8 mps 727 mmHg 69%
    10:00 +17°C° 0.6 mm 8 mps 727 mmHg 67%
    11:00 +17°C° 0.6 mm 8 mps 727 mmHg 66%
    12:00 +17°C° 0.2 mm 9 mps 727 mmHg 63%
    13:00 +17°C° 0.2 mm 9 mps 727 mmHg 60%
    14:00 +17°C° 0.2 mm 9 mps 727 mmHg 57%
    15:00 +16°C° 0.1 mm 8 mps 727 mmHg 59%
    16:00 +15°C° 0.1 mm 8 mps 727 mmHg 61%
    17:00 +15°C° 0.1 mm 7 mps 727 mmHg 63%
    18:00 +15°C° 0.1 mm 7 mps 727 mmHg 63%
    19:00 +14°C° 0.1 mm 7 mps 728 mmHg 64%
    20:00 +14°C° 0.1 mm 6 mps 728 mmHg 64%
    21:00 +14°C° 0.1 mm 6 mps 728 mmHg 66%
    22:00 +14°C° 0.1 mm 6 mps 728 mmHg 67%
    23:00 +13°C° 0.1 mm 6 mps 728 mmHg 68%

    Day after tomorrow, 22 November, Wednesday

    Time Temperature Precipitation Wind Pressure Humidity
    00:00 +13°C° 0.3 mm 6 mps 728 mmHg 69%
    01:00 +13°C° 0.3 mm 6 mps 728 mmHg 70%
    02:00 +13°C° 0.3 mm 5 mps 728 mmHg 71%
    03:00 +13°C° 0.3 mm 5 mps 728 mmHg 70%
    04:00 +13°C° 0.3 mm 5 mps 728 mmHg 70%
    05:00 +13°C° 0.3 mm 5 mps 728 mmHg 70%
    06:00 +14°C° 0.3 mm 4 mps 728 mmHg 68%
    07:00 +14°C° 0.3 mm 4 mps 729 mmHg 67%
    08:00 +14°C° 0.3 mm 4 mps 729 mmHg 65%
    09:00 +14°C° 0.2 mm 4 mps 729 mmHg 64%
    10:00 +15°C° 0.2 mm 4 mps 730 mmHg 63%
    11:00 +15°C° 0.2 mm 4 mps 730 mmHg 61%
    12:00 +15°C° 0.2 mm 4 mps 729 mmHg 61%
    13:00 +15°C° 0.2 mm 4 mps 729 mmHg 61%
    14:00 +15°C° 0.2 mm 4 mps 729 mmHg 61%
    15:00 +15°C° 0.1 mm 4 mps 729 mmHg 62%
    16:00 +14°C° 0.1 mm 3 mps 729 mmHg 64%
    17:00 +14°C° 0.1 mm 3 mps 730 mmHg 65%
    18:00 +14°C° 0 mm 3 mps 730 mmHg 66%
    19:00 +13°C° 0 mm 3 mps 730 mmHg 67%
    20:00 +14°C° 0 mm 2 mps 731 mmHg 68%
    21:00 +14°C° 0 mm 2 mps 731 mmHg 69%
    22:00 +13°C° 0 mm 2 mps 731 mmHg 69%
    23:00 +13°C° 0 mm 2 mps 731 mmHg 70%

    23 November, Thursday

    Time Temperature Precipitation Wind Pressure Humidity
    00:00 +13°C° 0 mm 2 mps 731 mmHg 70%
    01:00 +12°C° 0 mm 2 mps 731 mmHg 70%
    02:00 +12°C° 0 mm 2 mps 731 mmHg 71%
    03:00 +12°C° 0 mm 1 mps 731 mmHg 71%
    04:00 +12°C° 0 mm 1 mps 731 mmHg 71%
    05:00 +12°C° 0 mm 1 mps 731 mmHg 72%
    06:00 +12°C° 0 mm 1 mps 731 mmHg 69%
    07:00 +13°C° 0 mm 1 mps 731 mmHg 67%
    08:00 +13°C° 0 mm 1 mps 732 mmHg 64%
    09:00 +14°C° 0 mm 1 mps 732 mmHg 59%
    10:00 +15°C° 0 mm 1 mps 732 mmHg 54%
    11:00 +16°C° 0 mm 1 mps 732 mmHg 49%
    12:00 +17°C° 0 mm 2 mps 732 mmHg 47%
    13:00 +17°C° 0 mm 2 mps 731 mmHg 45%
    14:00 +18°C° 0 mm 3 mps 731 mmHg 43%
    15:00 +17°C° 0 mm 3 mps 731 mmHg 46%
    16:00 +16°C° 0 mm 3 mps 731 mmHg 49%
    17:00 +16°C° 0 mm 3 mps 731 mmHg 51%
    18:00 +15°C° 0 mm 2 mps 731 mmHg 53%
    19:00 +15°C° 0 mm 2 mps 732 mmHg 55%
    20:00 +14°C° 0 mm 2 mps 732 mmHg 56%
    21:00 +14°C° 0 mm 1 mps 732 mmHg 57%
    22:00 +13°C° 0 mm 1 mps 732 mmHg 58%
    23:00 +13°C° 0 mm 1 mps 732 mmHg 59%

    24 November, Friday

    Time Temperature Precipitation Wind Pressure Humidity
    00:00 +13°C° 0 mm 1 mps 732 mmHg 60%
    01:00 +13°C° 0 mm 1 mps 732 mmHg 61%
    02:00 +12°C° 0 mm 1 mps 731 mmHg 61%
    03:00 +12°C° 0 mm 1 mps 731 mmHg 62%
    04:00 +12°C° 0 mm 1 mps 731 mmHg 63%
    05:00 +12°C° 0 mm 1 mps 731 mmHg 64%
    06:00 +12°C° 0 mm 1 mps 732 mmHg 61%
    07:00 +13°C° 0 mm 1 mps 732 mmHg 58%
    08:00 +14°C° 0 mm 2 mps 732 mmHg 55%
    09:00 +15°C° 0 mm 1 mps 732 mmHg 51%
    10:00 +16°C° 0 mm 1 mps 732 mmHg 47%
    11:00 +18°C° 0 mm 1 mps 732 mmHg 43%
    12:00 +19°C° 0 mm 1 mps 732 mmHg 43%
    13:00 +18°C° 0 mm 2 mps 732 mmHg 42%
    14:00 +19°C° 0 mm 2 mps 732 mmHg 41%
    15:00 +18°C° 0 mm 2 mps 732 mmHg 45%
    16:00 +17°C° 0 mm 2 mps 732 mmHg 49%
    17:00 +16°C° 0 mm 2 mps 732 mmHg 52%
    18:00 +16°C° 0 mm 2 mps 732 mmHg 55%
    19:00 +15°C° 0 mm 1 mps 733 mmHg 57%
    20:00 +15°C° 0 mm 1 mps 733 mmHg 59%
    21:00 +15°C° 0 mm 1 mps 733 mmHg 59%
    22:00 +14°C° 0 mm 1 mps 733 mmHg 60%
    23:00 +14°C° 0 mm 1 mps 733 mmHg 60%

    25 November, Saturday

    Time Temperature Precipitation Wind Pressure Humidity
    00:00 +14°C° 0 mm 1 mps 733 mmHg 61%
    01:00 +13°C° 0 mm 1 mps 733 mmHg 61%
    02:00 +13°C° 0 mm 1 mps 733 mmHg 62%
    03:00 +13°C° 0 mm 1 mps 733 mmHg 62%
    04:00 +13°C° 0 mm 2 mps 733 mmHg 62%
    05:00 +12°C° 0 mm 2 mps 733 mmHg 61%
    06:00 +13°C° 0 mm 2 mps 733 mmHg 57%
    07:00 +14°C° 0 mm 2 mps 733 mmHg 53%
    08:00 +15°C° 0 mm 2 mps 733 mmHg 49%
    09:00 +16°C° 0 mm 2 mps 733 mmHg 43%
    10:00 +18°C° 0 mm 3 mps 733 mmHg 36%
    11:00 +19°C° 0 mm 3 mps 733 mmHg 30%
    12:00 +20°C° 0 mm 3 mps 733 mmHg 29%
    13:00 +20°C° 0 mm 2 mps 732 mmHg 27%
    14:00 +21°C° 0 mm 2 mps 732 mmHg 25%
    15:00 +20°C° 0 mm 2 mps 732 mmHg 28%
    16:00 +19°C° 0 mm 3 mps 732 mmHg 30%
    17:00 +18°C° 0 mm 3 mps 731 mmHg 33%
    18:00 +18°C° 0 mm 3 mps 732 mmHg 34%
    19:00 +17°C° 0 mm 3 mps 732 mmHg 36%
    20:00 +17°C° 0 mm 3 mps 732 mmHg 37%
    21:00 +16°C° 0 mm 3 mps 732 mmHg 37%
    22:00 +16°C° 0 mm 3 mps 732 mmHg 36%
    23:00 +16°C° 0 mm 3 mps 732 mmHg 35%
    Show more